Weather Roundup
Issued by NWS Springfield, MO

Home | Current Version | Previous Version | Text Only | Print | Product List | Glossary On
Versions: 1 2 3 4 5 6 7 8 9 10 11 12 13 14 15 16 17 18 19 20 21 22 23 24 25 26 27 28 29 30 31 32 33 34 35 36 37 38 39 40 41 42 43 44 45 46 47 48 49 50
000
NZUS99 KSGF 261459
HRRSGF

HOURLY WEATHER
NATIONAL WEATHER SERVICE SPRINGFIELD MO
900 AM CST THU FEB 26 2015

......SGF CWA......

CITY           SKY/WX    TMP DP  RH WIND       PRES   REMARKS
SPRINGFIELD    LGT SNOW  17  10  74 NW23      30.23R WCI  -1
JOPLIN         PTSUNNY   19   8  62 N21G26    30.32R WCI   3
WEST PLAINS    CLOUDY    22  16  78 N13G21    30.15R WCI  10
ROLLA          LGT SNOW  17  13  84 N18G24    30.19R FOG     WCI   1
OSAGE BEACH    CLOUDY    18  10  73 NW13      30.26R WCI   4
BRANSON        FLURRIES  19  14  79 NW21G29   30.21R WCI   3

......SURROUNDING SGF CWA......

CITY           SKY/WX    TMP DP  RH WIND       PRES   REMARKS
CHANUTE        PTSUNNY   15   5  64 N17G29    30.38R WCI  -1
PARSONS        MOSUNNY   16   5  62 N17G28    30.39R WCI   0
COFFEYVILLE    MOSUNNY   16   4  59 N23G32    30.39R WCI  -2
EMPORIA        MOSUNNY   11   2  67 N21G28    30.41R WCI  -8
SILOAM SPRINGS CLOUDY    21   9  58 N16G24    30.26R WCI   7
HARRISON AR    CLOUDY    21  16  81 NW16G23   30.18R WCI   7
NEAR YELLVILLE CLOUDY    25  16  68 N12       30.19R WCI  14

......KANSAS AND MISSOURI......

CITY           SKY/WX    TMP DP  RH WIND       PRES   REMARKS
KANSAS CTY INT MOSUNNY   10   1  67 N20G25    30.40R WCI  -9
DOWNTOWN KC    SUNNY     12   1  61 NW14      30.43R WCI  -3
COLUMBIA       FLURRIES  17  11  77 N17       30.27R WCI   1
SEDALIA        FAIR      16   6  65 N22       30.34R WCI  -2
ST JOSEPH      SUNNY      7  -2  66 N22       30.46R WCI -14
ST LOUIS       LGT SNOW  21  15  78 N15       30.20R WCI   8
SPIRIT OF STL  LGT SNOW  20  14  77 NW15G23   30.21R WCI   6
KIRKSVILLE     SUNNY     11   2  67 NW13G22   30.32R WCI  -4
WICHITA        PTSUNNY   15  -1  49 N21G26    30.43R WCI  -2
TOPEKA         SUNNY     12   1  61 N17       30.46R WCI  -5
OLATHE         SUNNY     11   0  61 N17G26    30.38R WCI  -6

......TENNESSEE......

CITY           SKY/WX    TMP DP  RH WIND       PRES   REMARKS
MEMPHIS        FOG       30  28  92 CALM      30.08R VSB 1/2
NASHVILLE      MOSUNNY   35  28  75 W7        30.02R WCI  29

......ARKANSAS.......

CITY           SKY/WX    TMP DP  RH WIND       PRES   REMARKS
FAYETTEVILLE   CLOUDY    22  15  75 N16       30.23R WCI   8
FT SMITH       CLOUDY    29  17  61 NW12      30.26R WCI  19
LITTLE ROCK    PTSUNNY   33  28  81 N17       30.12R WCI  22

......OKLAHOMA.......

CITY           SKY/WX    TMP DP  RH WIND       PRES   REMARKS
TULSA          CLOUDY    21   8  57 N26G35    30.37R WCI   4
PONCA CITY     MOSUNNY   18   5  57 N22G32    30.43R WCI   1
MCALESTER      FLURRIES  25  15  66 N22G33    30.28R WCI  10
OKLAHOMA CITY  PTSUNNY   22   9  57 N28G35    30.34R WCI   4

......IOWA............

CITY           SKY/WX    TMP DP  RH WIND       PRES   REMARKS
DES MOINES     MOSUNNY    4  -9  55 N14       30.41R WCI -14
QUAD CITIES    CLOUDY    11   0  61 N8        30.27R WCI  -1

......ILLINOIS........

CITY           SKY/WX    TMP DP  RH WIND       PRES   REMARKS
QUINCY         LGT SNOW  13   8  81 NW17      30.25R WCI  -4
CHICAGO        LGT SNOW  16   8  71 NE20      30.19R BLWGSNOWWCI  -1



USA.gov is the U.S. government's official web portal to all federal, state and local government web resources and services.